Location: Temiskaming Shores
(47.4794°N, 79.7121°W)
Time: 05:35:26
(UTC-05:00)

ISS - Visible Passes

Search period start: 05 March 2024 00:00
Search period end: 15 March 2024 01:00
Orbit: 414 x 422 km, 51.6° (Epoch: 05 March)

Date Brightness Start Highest point End Pass type
(mag) Time Alt. Az. Time Alt. Az. Time Alt. Az.
05 Mar -0.9 04:02:35 17° E 04:02:35 17° E 04:03:31 10° E visible
05 Mar -3.2 05:35:32 26° W 05:36:55 40° SW 05:40:07 10° SE visible
06 Mar -3.1 04:49:42 45° SSE 04:49:42 45° SSE 04:52:16 10° SE visible
07 Mar -0.7 04:03:58 12° ESE 04:03:58 12° ESE 04:04:15 10° ESE visible
07 Mar -2.1 05:36:56 18° SW 05:37:15 18° SW 05:39:37 10° S visible
08 Mar -1.5 04:51:21 15° SSE 04:51:21 15° SSE 04:52:13 10° SSE visible
12 Mar -1.3 20:55:35 10° S 20:55:49 11° S 20:55:49 11° S visible
13 Mar -1.6 20:08:57 10° SSE 20:09:47 11° SE 20:10:25 10° ESE visible
13 Mar -1.2 21:42:39 10° SW 21:43:22 15° SW 21:43:22 15° SW visible
14 Mar -3.2 20:54:34 10° SW 20:57:41 38° SE 20:57:45 38° SE visible
